Theta_e
323 312 310 310 301 298 294 300 306 308 310 315 321 323 325 325 322 316 335 350 354 358 362 362 363 364 364 362 361 360 360 359 360 360 361 360 360 360 361 362 363 362 359 358 357 355 354 355 355
319 316 313 306 296 291 294 302 305 309 313 318 329 329 329 324 328 330 333 353 355 359 361 360 363 362 363 362 360 360 360 359 359 360 361 361 360 360 361 361 362 361 359 357 355 354 353 353 354
314 314 305 300 293 291 295 304 307 312 315 316 317 335 328 324 331 332 347 352 356 358 360 360 362 362 363 362 360 359 360 359 359 360 361 361 360 360 360 361 361 360 357 355 354 353 353 353 353
304 303 302 295 293 298 302 306 308 310 313 316 320 332 339 342 339 342 352 353 352 355 359 364 363 362 362 362 360 359 360 360 359 360 361 361 361 361 360 360 360 360 358 355 354 355 355 355 355
301 296 292 291 295 300 306 308 308 308 310 312 317 319 333 340 350 351 351 351 350 353 359 362 363 362 362 362 361 360 360 360 359 360 360 361 361 361 361 360 359 359 358 356 354 356 356 356 355
295 293 285 287 293 302 305 309 308 308 310 312 316 332 332 340 342 350 351 348 352 353 358 359 364 363 362 361 360 360 359 359 360 360 360 360 360 360 361 360 358 357 357 356 356 356 355 354 353
293 288 285 287 290 295 302 307 305 307 308 310 317 329 334 337 342 343 349 352 354 355 356 358 360 361 362 360 359 359 359 359 359 359 359 359 359 359 359 358 358 357 356 356 357 356 355 354 353
297 292 286 289 291 291 299 303 305 302 306 314 322 329 327 336 341 343 343 347 349 352 355 355 358 360 358 357 360 359 359 359 358 359 359 358 358 358 358 355 357 357 356 355 355 355 355 354 353
299 289 285 289 291 293 299 299 307 308 306 308 326 336 337 341 344 340 336 338 344 349 349 354 354 356 358 355 358 359 360 359 359 359 359 355 353 353 355 354 357 358 356 355 355 354 354 353 352
292 290 290 296 297 294 298 299 301 304 304 304 328 338 340 341 340 338 337 334 338 342 346 350 353 353 354 357 355 354 356 355 354 353 353 350 347 348 352 354 357 357 356 355 354 353 353 352 343
291 291 296 297 300 300 300 300 301 301 300 302 309 336 340 339 338 339 336 333 332 340 346 348 349 351 352 353 353 354 354 354 352 351 351 346 346 346 348 346 348 347 353 346 349 346 345 341 340
290 294 296 296 300 300 299 303 301 301 301 306 310 338 339 337 335 335 331 334 335 337 343 347 347 346 348 352 352 351 352 351 348 348 348 344 340 340 341 342 341 343 343 342 341 340 340 339 338
290 294 296 298 299 300 302 300 301 300 304 305 327 335 334 332 334 333 334 336 335 333 337 344 344 342 339 346 347 348 347 346 346 343 346 343 339 337 340 339 340 343 341 342 340 337 338 337 337
294 296 296 297 297 299 299 300 300 303 304 306 327 329 331 329 330 331 333 333 335 336 333 341 341 341 344 342 339 341 343 344 343 342 344 345 339 339 339 337 341 340 342 342 341 337 337 336 338
296 291 294 295 295 296 300 297 298 303 304 302 311 325 326 327 327 329 331 331 334 336 334 339 339 341 341 345 342 339 342 342 340 341 342 345 341 338 340 339 340 341 343 341 341 338 338 338 341
293 289 287 293 295 297 297 292 300 302 302 301 303 309 324 326 327 326 330 332 334 332 332 335 345 341 340 339 340 341 337 337 341 345 344 346 345 342 340 343 340 343 344 343 344 345 344 342 343
289 287 286 290 295 296 294 292 298 302 302 300 300 304 315 326 328 331 332 331 333 330 331 334 341 340 339 338 339 338 336 336 336 338 344 348 348 347 344 347 348 350 346 343 337 332 336 335 338
287 286 287 288 293 293 292 291 297 300 301 300 300 301 302 319 327 332 332 326 327 328 329 330 335 334 339 338 336 335 334 336 338 337 338 337 336 345 348 350 346 345 342 335 334 330 331 331 337
294 290 289 291 295 292 291 292 294 298 297 298 298 299 300 301 317 328 327 324 325 326 328 330 330 332 333 332 330 329 328 334 334 333 337 334 334 339 347 347 343 344 344 339 333 332 330 330 338
293 289 289 293 295 292 292 291 294 296 297 298 299 299 300 300 305 321 319 322 324 325 326 328 329 329 332 331 330 328 327 333 332 334 336 338 334 332 346 340 338 335 342 342 340 338 336 336 335
294 290 290 290 294 295 293 289 292 297 297 298 299 299 299 300 300 316 318 321 318 319 323 326 326 328 330 330 326 322 327 325 322 329 333 335 336 338 335 335 334 334 339 340 340 339 335 331 329
290 295 294 293 290 284 292 282 289 294 296 298 298 296 298 299 300 311 318 320 315 317 323 326 328 330 329 328 325 321 320 320 321 323 330 338 338 341 335 332 328 335 340 341 337 338 335 330 326
293 297 294 293 289 286 288 285 288 293 294 298 301 303 303 301 301 303 316 319 318 320 324 324 329 331 329 326 325 323 321 325 328 322 324 334 334 338 342 343 341 340 339 333 333 333 335 331 327
299 295 293 293 286 281 286 286 285 289 293 299 302 304 306 308 309 311 314 315 316 321 330 335 336 332 334 335 333 329 329 328 327 330 329 333 337 334 335 336 340 337 336 332 331 329 329 330 326
295 288 281 278 279 279 289 286 287 293 298 302 301 303 305 307 309 312 314 319 323 324 323 324 322 320 321 322 323 323 322 320 319 319 320 321 322 321 322 325 326 327 329 329 329 328 328 326 324
291 289 280 277 279 281 290 283 288 302 304 305 307 309 311 311 312 314 316 317 317 318 319 320 319 317 318 318 318 319 319 316 317 318 318 316 316 318 319 319 321 321 322 322 321 321 322 324 324
292 287 292 285 287 283 287 294 300 302 304 306 307 308 309 311 312 313 314 315 315 315 315 314 314 314 314 316 316 316 317 314 313 314 314 313 312 316 314 314 314 315 315 315 315 315 316 317 318
295 295 287 284 280 278 286 291 292 297 300 304 303 304 306 308 310 311 313 314 314 313 314 314 313 311 312 314 315 315 315 314 312 312 312 312 312 313 313 313 313 313 314 312 311 310 312 312 313
290 290 288 289 287 280 280 290 302 302 303 302 303 304 304 306 306 307 307 307 308 309 309 307 307 307 309 311 310 310 310 310 312 310 311 309 309 309 310 310 310 310 309 308 306 307 309 308 308
297 289 290 284 285 288 285 290 302 303 304 306 307 306 304 305 304 304 304 304 304 304 304 304 304 304 304 307 308 308 307 307 306 307 308 307 306 306 306 306 306 307 306 305 304 305 305 305 302
Wind_Speed
6 6 1 3 3 5 5 10 2 14 5 5 7 8 6 1 6 5 1 14 21 18 14 13 17 20 20 18 16 16 16 15 16 15 15 15 14 15 15 15 15 15 16 15 14 13 11 10 11
3 3 3 2 4 2 7 5 18 10 7 17 5 2 3 3 2 2 6 12 21 19 15 13 18 19 19 20 17 16 16 16 16 15 14 14 13 13 13 13 14 15 15 15 14 13 10 9 10
2 1 4 4 4 7 8 7 7 8 9 18 5 3 5 4 4 8 9 17 19 18 16 14 18 19 19 19 18 16 16 15 16 15 15 14 13 12 12 11 12 13 14 14 13 12 11 8 8
2 5 4 4 9 10 13 11 4 15 9 14 1 5 1 11 6 8 24 22 16 15 14 18 20 18 19 18 17 16 15 15 15 16 15 15 14 12 11 11 11 12 13 13 12 11 10 7 5
3 4 1 4 9 8 11 12 5 11 11 17 15 3 5 11 13 15 13 16 16 15 14 13 18 20 18 18 17 16 15 14 14 15 15 13 12 11 11 11 10 10 10 10 10 9 8 6 5
2 4 2 8 8 11 10 11 4 6 12 18 7 7 3 7 10 11 12 11 10 9 11 9 14 18 20 19 18 17 15 15 14 14 14 13 13 12 11 10 10 9 9 9 9 8 7 6 6
5 5 7 6 5 10 19 4 8 11 13 21 5 5 4 9 10 9 10 9 11 7 9 7 5 7 12 18 19 17 16 16 15 14 14 14 13 12 11 10 9 9 9 9 8 8 8 7 7
5 5 5 7 13 12 7 4 6 6 16 14 8 9 7 7 17 18 15 12 7 7 8 8 5 5 4 4 12 18 17 15 14 14 14 14 13 11 10 10 9 9 9 9 9 9 9 8 8
4 3 7 9 7 5 8 5 11 2 7 10 7 5 21 17 23 22 13 10 5 4 4 11 10 6 4 4 6 9 16 17 16 13 12 9 5 7 9 8 10 10 9 9 9 9 9 8 9
6 9 9 5 10 6 8 10 10 10 12 12 5 12 18 16 19 22 22 12 3 1 3 4 13 13 8 7 7 3 4 4 5 5 5 4 5 5 7 8 11 11 10 10 9 9 9 8 4
5 14 11 5 11 11 14 21 5 7 15 9 3 13 12 16 12 16 12 16 17 11 6 8 5 9 14 9 6 5 3 4 3 5 5 5 4 4 4 3 4 4 8 3 6 5 4 5 4
7 4 8 6 8 7 13 16 14 6 10 7 7 16 15 12 14 13 11 6 7 7 15 11 11 8 7 6 8 7 5 5 4 6 5 4 3 4 4 4 5 4 4 5 5 3 5 6 6
6 9 9 10 15 17 15 18 20 13 9 6 4 10 11 9 10 10 12 9 9 8 7 13 9 7 7 6 4 6 6 6 6 5 6 4 4 5 4 4 4 5 4 4 5 5 5 5 6
6 18 18 14 15 15 18 19 5 18 6 3 8 7 10 10 12 10 14 11 8 7 8 6 13 11 7 6 6 6 7 8 7 7 8 9 5 4 4 4 5 5 5 5 5 6 5 5 5
12 9 11 12 7 11 12 18 22 6 5 5 11 8 9 11 8 19 20 11 8 4 7 7 8 6 8 9 6 4 4 3 3 6 9 11 8 7 7 4 6 7 6 6 6 3 3 4 2
5 5 12 10 8 8 11 21 17 3 5 7 8 11 12 13 14 8 11 14 11 10 8 7 8 7 9 7 6 1 2 3 4 1 4 8 8 5 7 7 8 8 7 5 4 3 3 4 4
3 8 5 8 9 8 10 11 7 5 5 6 5 7 14 13 10 8 11 14 16 17 15 11 10 10 12 9 9 1 4 2 4 3 3 4 4 7 8 9 9 5 4 5 5 2 3 3 3
9 5 4 7 7 7 11 8 8 7 8 9 7 7 8 15 20 17 15 13 15 14 13 12 12 12 10 9 6 7 6 5 1 5 2 5 9 17 17 10 2 2 5 4 2 2 2 2 1
9 6 6 5 14 5 9 10 10 11 7 9 8 8 9 9 12 17 18 13 8 7 9 10 9 9 10 8 8 4 5 3 1 5 7 6 2 20 25 9 6 4 4 6 7 4 1 4 3
10 8 9 11 7 7 11 15 10 10 9 10 12 9 9 6 12 20 12 10 16 15 10 10 11 8 8 4 3 2 4 2 1 4 5 5 6 23 14 5 5 6 5 7 8 7 4 4 5
15 14 11 10 4 6 10 7 5 7 6 6 9 9 8 10 10 13 16 15 11 11 14 13 8 9 7 6 5 4 3 2 1 2 4 4 8 21 5 7 9 7 5 5 5 5 6 5 3
18 14 17 15 4 6 5 6 4 6 6 1 7 7 8 9 5 9 16 14 11 11 8 10 11 10 8 9 5 6 4 4 3 3 1 4 3 5 13 8 5 4 2 4 3 5 5 4 5
15 15 17 16 6 4 1 5 8 4 5 3 2 6 6 10 9 11 11 15 17 14 10 4 6 6 4 7 7 2 1 1 3 2 3 5 8 11 16 14 4 4 3 4 4 4 3 3 3
19 12 12 12 4 6 5 7 6 3 6 4 3 2 5 7 7 8 7 10 8 9 8 8 11 7 8 4 6 7 3 3 1 4 7 3 5 3 3 1 2 2 3 3 3 4 5 5 3
20 7 3 3 6 6 7 2 8 6 5 5 5 6 8 9 10 10 14 13 13 14 12 12 14 9 7 14 11 7 6 6 7 4 3 5 5 4 6 6 7 6 5 5 5 3 3 3 2
13 13 7 6 6 3 3 3 5 5 8 8 8 11 14 13 11 13 13 16 15 17 16 15 14 12 11 12 11 9 8 7 6 9 7 7 5 5 6 5 5 4 2 5 4 3 4 4 4
15 12 12 7 2 6 5 4 5 10 15 13 14 18 13 12 12 13 12 13 15 16 15 15 14 10 8 10 9 6 7 7 6 6 7 5 3 3 6 6 7 7 6 6 6 4 5 5 4
18 11 8 3 8 5 3 5 3 5 7 10 9 12 13 12 11 10 9 12 12 11 11 11 9 8 7 9 7 7 7 4 7 4 7 6 4 6 7 8 8 7 9 9 8 6 5 6 5
3 6 5 8 6 7 5 3 1 3 10 9 5 6 8 11 10 10 9 7 8 10 10 9 10 9 8 8 8 6 4 6 6 2 5 5 6 6 8 8 8 9 9 7 7 7 7 7 6
5 8 8 8 3 4 5 3 1 6 2 8 6 7 8 10 8 9 8 11 14 13 13 12 11 13 9 7 5 4 5 6 5 7 7 7 8 6 6 5 6 5 5 5 6 5 5 3 5
Wind_Direction
302 315 293 38 56 71 251 252 251 269 325 273 287 143 159 108 176 214 301 155 138 142 149 161 150 141 139 135 136 134 130 129 127 125 123 123 124 125 125 127 132 130 126 124 124 125 131 130 120
320 304 47 75 118 165 255 251 257 266 278 312 109 59 98 212 247 109 100 154 143 141 147 159 157 147 144 140 143 140 139 138 135 133 130 131 131 131 131 133 132 131 129 129 131 133 137 142 130
281 204 104 148 178 199 233 227 283 285 328 314 299 50 162 208 222 131 140 149 142 140 147 158 158 150 146 144 145 147 146 144 142 141 139 139 139 140 141 137 136 136 135 136 140 142 144 156 146
53 14 5 143 225 249 235 261 353 322 308 308 299 75 215 23 352 146 143 142 140 140 142 159 155 152 148 146 147 148 149 149 149 147 148 149 149 150 147 146 148 145 143 145 147 148 151 165 173
37 66 193 213 236 248 253 264 290 296 287 283 310 34 45 4 61 99 115 134 142 143 135 156 156 151 150 149 150 151 152 155 156 152 154 156 157 156 154 155 153 149 147 150 154 155 154 168 191
58 106 126 225 229 252 265 277 267 268 272 281 278 93 58 324 26 103 120 125 121 130 122 142 160 156 154 154 156 157 158 160 161 160 161 163 166 165 162 160 157 154 151 156 161 163 165 179 210
136 104 214 219 228 251 255 267 249 267 283 283 283 75 113 20 19 53 94 96 102 108 97 110 139 158 159 158 157 159 163 164 166 167 166 168 174 175 172 168 166 162 161 164 170 175 186 194 220
162 126 230 219 232 260 266 244 250 253 282 290 186 150 189 182 95 71 57 57 59 110 104 124 114 113 102 154 170 161 163 166 171 172 171 171 175 178 181 176 175 174 174 177 181 191 199 209 219
179 198 220 219 203 249 303 292 280 309 276 313 329 109 136 159 113 105 68 33 35 102 175 143 147 139 124 137 181 181 170 169 172 175 176 172 173 179 188 189 188 188 189 193 196 199 206 220 231
186 214 224 203 212 266 268 266 295 333 319 308 63 82 139 144 131 122 127 125 89 195 230 230 156 153 151 171 183 167 183 157 166 163 181 173 179 181 189 197 197 197 201 202 207 213 217 229 235
227 240 228 267 230 249 263 272 285 274 279 264 99 155 168 162 155 143 132 137 168 152 190 196 216 167 161 163 169 182 162 177 155 173 178 184 190 202 199 199 209 196 214 211 209 217 216 227 231
237 248 237 274 270 262 247 265 263 222 253 284 313 173 166 172 168 152 154 153 85 138 186 189 171 176 192 163 166 174 174 180 180 190 187 184 199 206 209 203 205 192 193 198 215 207 222 230 234
235 240 249 244 248 250 261 262 269 252 263 309 156 142 154 149 165 162 143 125 139 157 140 169 161 161 176 171 174 166 177 189 195 179 191 193 208 216 192 216 209 212 187 197 208 213 219 234 239
229 233 246 249 255 252 252 262 261 258 202 70 112 151 156 178 167 143 162 170 181 149 143 145 150 155 148 158 155 190 190 196 187 192 195 198 205 223 219 212 212 220 206 208 209 205 203 223 224
237 257 261 246 243 244 252 263 247 247 192 184 152 171 178 181 181 181 180 183 172 151 148 143 139 160 132 134 170 178 136 178 244 208 194 199 192 202 223 213 212 218 206 212 213 204 216 237 261
203 185 248 265 223 246 169 247 252 211 173 244 177 165 183 194 203 196 176 167 175 158 181 165 161 170 146 119 79 55 136 117 84 252 256 204 195 223 226 227 219 215 205 199 128 157 156 156 176
222 238 220 276 197 226 181 252 253 248 261 246 236 206 165 178 203 227 220 191 175 171 175 180 184 173 154 128 126 282 255 178 128 359 10 14 328 280 251 236 226 197 141 143 147 185 190 232 263
212 195 214 204 273 199 254 255 258 245 229 236 230 203 214 175 189 197 208 214 185 181 179 182 186 177 161 143 159 184 165 154 225 122 198 313 18 300 256 233 226 160 129 141 183 198 255 180 266
225 219 233 232 242 195 253 251 239 239 233 244 240 222 188 208 188 188 197 198 176 185 170 181 176 161 154 165 175 176 204 170 68 121 172 132 215 263 248 200 166 202 182 177 165 148 259 271 262
218 231 245 265 273 153 253 252 227 221 226 214 223 238 227 185 159 187 185 182 187 182 183 181 187 166 180 169 132 145 145 216 117 127 216 228 66 291 232 169 218 213 171 176 186 174 174 211 168
224 221 232 238 286 276 250 253 227 245 226 232 235 215 224 203 189 185 178 182 185 176 178 182 179 173 166 141 115 94 76 87 145 239 186 228 172 260 130 189 214 212 191 211 205 190 177 166 226
227 214 227 244 231 235 156 248 273 229 237 181 252 247 249 239 199 187 187 179 175 189 180 178 179 173 172 166 155 158 166 152 245 240 127 135 203 69 302 264 225 258 212 207 197 228 204 143 201
230 216 223 234 208 203 207 87 267 45 332 176 164 142 191 205 180 164 199 187 185 176 174 171 122 102 73 49 22 313 162 96 282 265 246 204 200 176 212 246 270 263 245 247 228 224 198 206 185
226 220 231 242 173 229 229 136 275 247 205 175 277 157 165 154 152 152 159 99 100 102 86 67 71 46 83 113 133 197 190 218 288 273 242 280 164 172 208 359 169 148 270 227 241 247 234 230 213
220 184 254 248 210 207 197 66 229 323 311 202 145 53 47 29 26 43 92 87 92 83 89 82 86 77 76 86 78 66 90 106 81 84 82 70 47 34 50 45 36 54 19 43 30 13 6 341 281
214 190 163 168 178 163 135 190 314 7 25 28 37 77 66 52 48 53 74 87 87 88 90 90 79 65 53 59 62 71 42 68 43 58 53 44 41 13 34 59 62 62 40 34 18 20 5 342 325
215 197 197 126 47 121 147 94 50 24 29 43 56 66 66 63 58 60 66 89 94 93 94 96 92 79 63 71 69 27 46 86 59 73 86 49 10 17 37 35 36 22 26 25 12 342 338 338 318
213 167 159 6 133 160 145 120 124 12 46 36 44 79 88 85 74 78 74 82 93 97 102 92 83 85 91 94 83 79 27 266 81 60 76 87 34 16 29 29 35 26 23 18 8 2 349 348 337
146 164 95 108 120 155 137 112 348 239 134 98 66 63 98 99 105 95 91 79 81 81 74 72 72 73 71 58 53 79 247 48 60 51 67 86 83 66 48 34 31 24 20 11 10 359 1 349 0
216 175 141 128 180 95 116 176 298 201 142 124 113 95 123 112 105 101 93 86 78 72 63 63 64 64 47 41 61 65 33 48 41 39 52 49 55 61 71 60 50 30 3 349 351 338 328 355 330